Southbury, CT

9:43 PM EST on February 22, 2017 (GMT -0500)
Waterbury-Oxford

Weather History for KOXC - April, 2014

Change the Weather History Date:

Saturday, April 12, 2014

  Actual Average Record
Temperature  
Mean Temperature 55 °F -  
Max Temperature 66 °F 54 °F 71 °F (2008)
Min Temperature 44 °F 35 °F 28 °F (1998)
Degree Days  
Heating Degree Days 10    
Growing Degree Days 5 (Base 50)    
Moisture  
Dew Point 36 °F    
Average Humidity 58    
Maximum Humidity 87    
Minimum Humidity 23    
Precipitation  
Precipitation 0.01 in - - ()
Sea Level Pressure  
Sea Level Pressure 30.15 in    
Wind  
Wind Speed 4 mph (West)    
Max Wind Speed 12 mph    
Max Gust Speed 21 mph    
Visibility 10 miles    
Events      
Averages and records for this station are not official NWS values.
T = Trace of Precipitation, MM = Missing Value Source: NWS Daily Summary

Daily Weather History Graph

Daily Weather History Graph

Search for Another Location

Airport or City:

Trip Planner

Search our weather history database for the weather conditions in past years. The results will help you decide how hot, cold, wet, or windy it might be!

Date:

Astronomy

Apr. 12, 2014 Rise Set
Actual Time 6:17 AM EDT 7:29 PM EDT
Civil Twilight 5:49 AM EDT 7:58 PM EDT
Nautical Twilight 5:14 AM EDT 8:32 PM EDT
Astronomical Twilight 4:39 AM EDT 9:08 PM EDT
Moon 5:03 PM EDT (4/12) 4:44 AM EDT (4/12)
Length of Visible Light 14h 09m
Length of Day
13h 12m
Waxing Gibbous, 93% of the Moon is Illuminated
Apr 12
Waxing Gibbous
Apr 15
Full
Apr 22
Last Quarter
Apr 29
New
May 6
First Quarter

Hourly Weather History & Observations

Time (EDT) Temp. Windchill Dew Point Humidity Pressure Visibility Wind Dir Wind Speed Gust Speed Precip Events Conditions
12:15 AM 48.2 °F - 42.8 °F 82% 30.03 in 10.0 mi Calm Calm - N/A   Overcast
12:35 AM 48.2 °F - 42.8 °F 82% 30.03 in 10.0 mi Calm Calm - 0.01 in   Overcast
12:55 AM 48.2 °F - 44.6 °F 87% 30.04 in 10.0 mi Calm Calm - 0.01 in   Overcast
1:15 AM 48.2 °F - 42.8 °F 82% 30.04 in 10.0 mi Calm Calm - N/A   Overcast
1:35 AM 48.2 °F - 42.8 °F 82% 30.04 in 10.0 mi NW 3.5 mph - N/A   Overcast
1:55 AM 48.2 °F - 42.8 °F 82% 30.05 in 10.0 mi Calm Calm - N/A   Overcast
2:15 AM 46.4 °F 44.3 °F 42.8 °F 87% 30.05 in 10.0 mi NNW 4.6 mph - N/A   Overcast
2:35 AM 46.4 °F 44.3 °F 42.8 °F 87% 30.05 in 10.0 mi NNW 4.6 mph - N/A   Mostly Cloudy
2:55 AM 46.4 °F 45.2 °F 42.8 °F 87% 30.06 in 10.0 mi NW 3.5 mph - N/A   Overcast
3:15 AM 46.4 °F 44.3 °F 42.8 °F 87% 30.07 in 10.0 mi NNW 4.6 mph - N/A   Overcast
3:35 AM 46.4 °F 43.5 °F 42.8 °F 87% 30.07 in 10.0 mi North 5.8 mph - N/A   Overcast
3:55 AM 46.4 °F 44.3 °F 42.8 °F 87% 30.07 in 10.0 mi NNW 4.6 mph - N/A   Overcast
4:15 AM 46.4 °F 44.3 °F 41.0 °F 81% 30.08 in 10.0 mi NW 4.6 mph - N/A   Scattered Clouds
4:35 AM 46.4 °F - 41.0 °F 81% 30.09 in 10.0 mi Calm Calm - N/A   Clear
4:55 AM 44.6 °F 43.1 °F 41.0 °F 87% 30.10 in 10.0 mi NW 3.5 mph - N/A   Clear
5:15 AM 44.6 °F - 39.2 °F 81% 30.11 in 10.0 mi Calm Calm - N/A   Clear
5:35 AM 44.6 °F 43.1 °F 39.2 °F 81% 30.12 in 10.0 mi NW 3.5 mph - N/A   Clear
5:55 AM 44.6 °F 42.2 °F 39.2 °F 81% 30.13 in 10.0 mi NNW 4.6 mph - N/A   Clear
11:45 AM 59.0 °F - 35.6 °F 42% 30.24 in 10.0 mi WNW 9.2 mph - N/A   Clear
12:52 PM 62.6 °F - 35.6 °F 37% 30.22 in 10.0 mi WNW 9.2 mph 19.6 mph N/A   Clear
1:52 PM 64.4 °F - 32.0 °F 30% 30.19 in 10.0 mi West 9.2 mph 18.4 mph N/A   Clear
2:10 PM 64.4 °F - 30.2 °F 28% 30.18 in 10.0 mi SW 8.1 mph 17.3 mph N/A   Clear
2:25 PM 64.4 °F - 28.4 °F 26% 30.18 in 10.0 mi NW 6.9 mph 17.3 mph N/A   Clear
2:52 PM 64.4 °F - 28.4 °F 26% 30.19 in 10.0 mi WNW 9.2 mph 18.4 mph N/A   Clear
3:45 PM 66.2 °F - 26.6 °F 23% 30.17 in 10.0 mi WNW 11.5 mph 17.3 mph N/A   Clear
4:45 PM 66.2 °F - 28.4 °F 24% 30.17 in 10.0 mi North 9.2 mph 20.7 mph N/A   Partly Cloudy
5:45 PM 66.2 °F - 30.2 °F 26% 30.18 in 10.0 mi West 5.8 mph - N/A   Partly Cloudy
6:45 PM 66.2 °F - 28.4 °F 24% 30.19 in 10.0 mi West 4.6 mph - N/A   Partly Cloudy
7:45 PM 66.2 °F - 35.6 °F 32% 30.20 in 10.0 mi South 10.4 mph - N/A   Partly Cloudy
8:45 PM 55.4 °F - 33.8 °F 44% 30.24 in 10.0 mi South 8.1 mph - N/A   Partly Cloudy
9:15 PM 53.6 °F - 32.0 °F 44% 30.24 in 10.0 mi South 6.9 mph - N/A   Clear
9:35 PM 53.6 °F - 30.2 °F 41% 30.24 in 10.0 mi South 5.8 mph - N/A   Clear
9:55 PM 53.6 °F - 30.2 °F 41% 30.24 in 10.0 mi SSW 9.2 mph - N/A   Clear
10:15 PM 53.6 °F - 30.2 °F 41% 30.24 in 10.0 mi SSW 4.6 mph - N/A   Clear
10:35 PM 53.6 °F - 30.2 °F 41% 30.24 in 10.0 mi SSW 4.6 mph - N/A   Clear
10:55 PM 51.8 °F - 30.2 °F 44% 30.24 in 10.0 mi SSW 4.6 mph - N/A   Clear
11:15 PM 51.8 °F - 30.2 °F 44% 30.23 in 10.0 mi SSW 4.6 mph - N/A   Clear
11:35 PM 51.8 °F - 30.2 °F 44% 30.24 in 10.0 mi SSW 3.5 mph - N/A   Clear
11:55 PM 50.0 °F - 32.0 °F 50% 30.23 in 10.0 mi South 3.5 mph - N/A   Clear